STARLINK-37211, 68620

Orbit data source: Space-Track

STARLINK-37211, 68620 is a payload satellite owned by SpaceX/Seattle (US) in SSO that was launched on Sun, 05 Apr 2026 UTC via an FALCON 9 launch vehicle from the Air Force Western Test Range (AFWTR). Payload-class satellites include a variety of spacecraft equipped with specific instruments for various scientific and technological missions. These include communications satellites like Starlink; space stations such as the ISS; scientific satellites like the Hubble; Earth observation satellites from companies like Planet Labs, Umbra, and HawkEye 360; GPS; miniature CubeSats for education and research; and military/defense satellites.

Loading next visibility...
Identifier
68620, 2026-073U
Orbit
SSO
Country
Flag of USUS
Related business
Manufacturer
SpaceX/Seattle
Mission
Operational spacecraft
Bus & Motor
STARLINK V2MO, Unknown motor
Mass
575 kg wet, ~530 kg dry
Launch date (UTC)
2026-04-05 (3 months ago)
Launch vehicle
FALCON 9
Launch site
Air Force Western Test Range (AFWTR)
Object type
Payload
Rocket body
Debris
Shape & HBR
Unknown shape, 14.5 m
Radar Cross Section
Large (>1 m²)

Expand to show TLE details & history
Last TLE update: 20 hours ago

TLE from 20 hours ago
0 STARLINK-37211
1 68620U 26073U   26171.02531389  .00011315  00000-0  35220-3 0  9994
2 68620  97.2872  10.4253 0001373 100.5229 259.6169 15.33453378 11571
Epoch: 2026-06-20T00:36Z
TLE epoch observation values (Epoch: 2026-06-20T00:36:27.120Z)
Latitude
0.00005°
Longitude
93.06643°
Altitude
468.8 km
Speed
7.632 km/s
True Right ascension
00h 41m 42s
True Declination
0° 00' 00"
Sunlit
Object was in daylight at epoch
Visualization orbit readout
Latitude
Unknown
Longitude
Unknown
Altitude
Unknown
Speed
Unknown
Apparent Right ascension
Unknown
Apparent Declination
Unknown
Sunlit
N/A
Visualization observer readout
Local Sidereal Time
07:15:05
Azimuth
Unknown
Elevation
Unknown
Doppler factor
Unknown
Orbital elements
Apogee altitude
463.4 km
Perigee altitude
461.522 km
Semi-major axis
6,840.598 km
Eccentricity
0.00014
Inclination
97.2872°
RAAN
10.4253°
Arg. of periapsis
100.5229°
True anomaly
259.60142°
Mean anomaly
259.6169°
Eccentric anomaly
259.60916°
Mean motion
3.83621 °/min
Orbital period
93.84 mins
BSTAR
0.0003522
Loading maneuver chart data...
Computing Atmospheric mass density...
Loading historical data...
Loading historical data...
Loading historical data...
Loading historical data...
Loading historical data...
Loading historical data...
Loading historical data...

Documentation

Showing up to 5 results
|